Temperature
18 18 18 17 17 17 17 17 17 16 16 16 16 16 16 16 16 16 15 15 15 15 15 15 15 15 15 15 15 15 15 15 15 15 15 15 15 15 14 14 14 14 14
18 18 17 17 17 17 17 17 16 16 16 16 16 16 16 16 16 15 15 15 15 15 15 15 15 15 15 15 15 15 15 15 15 15 14 14 14 14 14 14 14 14 14
18 18 17 17 17 17 17 17 16 16 16 16 16 15 15 15 15 15 15 15 15 15 15 15 15 15 15 14 14 14 14 14 14 14 14 14 14 14 14 13 13 13 13
18 18 17 17 17 17 17 17 16 16 16 16 15 15 15 15 15 15 15 15 14 14 14 14 14 14 14 14 14 14 14 14 14 14 13 13 13 13 13 13 13 13 13
18 18 17 17 17 17 17 16 16 16 15 15 15 15 15 15 15 15 15 14 14 14 14 14 14 14 14 14 14 14 14 14 13 13 13 13 13 12 12 12 12 12 12
18 18 17 17 17 17 16 16 16 16 15 15 15 15 15 15 15 15 14 14 14 14 13 13 13 14 14 14 13 13 13 13 13 13 12 12 12 12 12 12 12 12 12
18 17 17 17 17 16 16 16 16 15 15 15 15 15 15 15 14 14 14 14 14 13 13 13 13 13 13 13 13 13 13 13 13 12 12 12 12 12 12 12 12 12 12
17 17 17 17 16 16 16 16 15 15 15 15 14 14 14 14 14 14 14 14 13 13 13 13 13 13 13 13 13 13 13 13 12 12 12 12 12 12 12 12 12 12 11
17 17 17 16 16 16 16 15 15 15 15 15 14 14 14 14 14 14 14 13 13 13 13 13 12 12 12 12 12 12 12 12 12 12 12 12 12 12 12 12 12 11 11
17 17 16 16 16 16 15 15 15 15 14 14 14 14 14 14 14 14 14 13 13 13 12 12 12 12 12 12 12 12 12 12 12 12 12 12 12 12 12 12 12 11 11
17 16 16 16 16 16 15 15 15 14 14 14 14 14 14 14 14 13 13 13 13 12 12 12 12 12 12 12 12 12 12 12 12 12 12 12 12 12 12 12 11 11 11
16 16 16 16 15 15 15 15 15 14 14 14 14 14 14 14 13 13 13 13 12 12 12 12 12 12 12 12 12 12 12 11 11 11 11 11 12 12 12 11 11 11 11
16 16 15 15 15 15 15 15 15 14 14 14 14 14 14 13 13 13 13 13 12 12 12 12 12 12 12 12 11 11 11 11 11 11 11 11 11 11 11 11 11 11 11
15 15 15 15 15 15 15 14 14 14 14 14 14 14 13 13 13 13 13 12 12 12 12 12 12 12 12 11 11 11 11 11 11 11 11 11 11 11 11 11 11 11 11
15 15 15 15 15 15 15 14 14 14 14 14 14 14 13 13 13 13 12 12 12 12 12 11 11 11 11 11 11 11 11 11 11 11 11 11 11 11 11 11 11 10 10
15 15 15 15 15 15 15 14 14 14 14 14 14 14 13 13 13 13 12 12 12 12 11 11 11 11 11 11 11 11 11 11 10 10 10 10 10 10 10 10 10 10 10
15 15 15 15 15 15 15 15 14 14 14 14 14 13 13 13 13 12 12 12 12 11 11 11 11 11 11 11 11 11 10 10 10 10 10 10 10 10 10 10 10 10 10
15 15 15 15 15 15 15 15 14 14 14 14 14 13 13 13 12 12 12 12 12 11 11 11 11 11 11 11 11 10 10 10 10 10 10 10 10 9 9 10 10 10 10
15 15 14 14 15 15 15 14 14 14 14 14 13 13 13 13 12 12 12 12 11 11 11 11 11 11 11 10 10 10 10 10 10 10 10 9 9 9 9 9 9 9 10
14 14 14 14 14 14 14 14 14 14 14 13 13 13 13 12 12 12 12 12 12 11 11 11 11 11 10 10 10 10 10 9 9 9 9 9 9 9 9 9 9 9 9
14 14 14 14 14 14 14 14 14 14 13 13 13 13 13 12 12 12 12 12 11 11 11 11 10 10 10 10 10 10 9 9 9 9 9 9 9 9 9 9 9 9 9
14 14 14 14 14 14 14 14 14 14 13 13 13 13 12 12 12 12 12 12 11 11 11 10 10 10 10 10 9 9 9 9 9 9 8 8 8 8 8 9 9 9 9
14 14 14 13 13 13 13 13 13 13 13 13 13 13 12 12 12 11 11 11 11 11 11 10 10 10 9 9 9 9 8 8 8 8 8 8 8 8 8 8 8 8 8
13 13 13 13 13 13 13 13 13 13 13 13 12 12 12 12 11 11 11 11 10 10 10 10 10 9 9 9 9 9 8 8 8 8 8 8 8 8 8 8 8 8 8
13 13 13 13 13 13 13 13 13 13 12 12 12 12 12 11 11 11 11 10 10 10 10 9 9 9 9 9 8 8 8 8 8 8 7 7 7 7 8 8 8 8 8
13 13 13 13 13 12 12 12 12 12 12 12 11 11 11 11 11 10 10 10 10 9 9 9 9 9 8 8 8 8 8 8 8 7 7 7 7 7 7 7 8 8 8
Wind_Speed
4 3 3 3 2 1 1 1 0 1 1 1 1 1 1 2 2 1 2 2 2 2 3 2 2 2 2 2 2 1 1 0 0 1 0 1 1 2 2 3 3 4 5
4 4 3 2 2 1 1 1 1 1 1 1 1 2 2 2 2 2 2 3 2 3 3 2 3 2 2 2 2 2 1 0 1 0 0 0 1 1 2 1 1 1 2
5 4 3 2 2 1 1 1 1 0 0 1 1 1 2 2 2 2 2 2 2 3 2 2 2 2 2 2 2 2 2 1 1 0 1 1 1 1 1 0 0 0 1
4 4 3 3 2 1 1 1 1 1 1 1 1 1 1 2 3 3 2 2 3 2 2 3 2 2 2 2 2 2 2 2 1 0 0 0 1 1 1 0 1 1 1
4 3 3 3 2 1 1 1 0 1 1 1 1 1 1 2 3 4 3 2 2 2 2 2 2 2 2 1 1 1 2 1 1 0 0 0 0 0 0 1 1 1 1
3 3 3 3 2 2 1 1 0 1 1 1 1 2 2 3 4 6 4 3 3 3 2 2 0 1 3 3 2 1 0 0 0 0 1 1 1 1 1 1 1 1 2
3 3 2 3 2 2 2 2 1 1 1 1 1 2 2 3 4 4 4 3 2 2 2 3 3 2 2 1 0 1 1 2 4 3 2 2 2 2 1 2 2 2 3
3 2 2 2 2 2 2 2 2 2 1 1 1 1 1 1 1 3 4 3 2 2 2 1 1 2 3 3 2 2 2 2 3 3 2 3 2 1 2 2 3 2 2
3 2 2 1 2 2 2 2 2 2 2 2 2 1 1 1 0 1 3 3 1 1 1 1 1 2 2 3 1 2 2 3 3 2 3 4 4 4 3 2 2 3 3
2 2 2 2 1 2 2 2 2 1 2 2 1 1 1 1 2 1 1 3 2 2 1 1 2 1 2 2 1 2 3 3 3 3 3 4 4 5 6 5 4 4 3
1 2 2 2 2 2 2 2 2 2 2 2 2 2 2 2 4 3 2 2 3 3 2 1 1 1 1 2 3 3 4 4 4 4 4 3 3 3 4 3 3 3 3
1 1 2 1 2 1 2 2 2 2 3 3 3 3 2 2 3 4 5 4 4 3 3 1 0 1 3 4 4 5 5 5 4 4 3 2 2 2 2 1 1 2 3
1 1 1 2 1 2 3 3 3 3 3 3 3 3 2 2 3 4 5 4 4 3 3 3 4 5 5 4 6 6 4 3 3 3 2 2 2 2 1 1 1 2 3
1 1 2 2 3 3 3 3 3 3 3 2 2 2 2 1 1 0 1 3 4 3 3 4 5 6 6 5 4 3 3 3 3 3 3 3 2 2 2 2 2 3 2
1 2 2 3 3 2 2 2 2 1 1 1 2 2 1 1 0 1 1 2 2 2 3 4 4 3 3 3 2 2 3 3 3 3 3 3 3 2 3 3 3 2 3
1 2 2 2 2 3 3 2 1 2 3 3 2 1 0 2 2 2 1 1 3 3 3 5 4 3 3 3 3 3 3 2 2 2 3 3 3 3 3 3 3 3 3
2 2 3 3 3 3 3 3 2 2 3 4 5 5 4 4 4 4 3 3 5 4 4 5 4 3 3 3 3 2 2 2 2 3 3 3 3 3 4 4 3 3 3
4 3 4 4 3 3 3 3 3 3 3 3 5 8 9 8 7 6 4 2 4 4 4 4 3 3 3 3 2 2 2 2 2 3 3 3 3 4 4 4 4 4 3
3 3 3 4 4 4 3 3 4 3 2 2 2 3 7 7 7 7 4 4 5 4 3 3 3 3 3 2 2 2 2 3 3 3 3 3 3 4 4 4 4 5 4
3 4 4 4 5 4 3 4 3 2 2 2 2 1 2 3 4 4 4 5 5 4 3 3 3 3 2 2 2 2 3 3 3 3 3 3 3 4 5 5 5 4 4
4 4 4 4 4 4 4 3 3 2 2 2 1 1 2 3 4 4 3 4 4 3 2 3 3 3 2 2 3 3 4 3 3 3 3 3 4 4 4 4 4 4 3
4 3 2 3 3 3 3 3 3 3 3 3 1 2 4 3 3 2 2 2 2 3 3 2 3 3 3 2 3 3 3 3 4 4 4 4 4 5 5 4 4 4 3
4 3 2 2 2 1 2 3 3 3 3 3 3 2 2 2 2 2 2 2 2 3 2 2 3 3 2 2 2 2 2 3 3 4 5 6 5 5 4 5 5 4 4
4 3 2 1 1 2 3 3 3 3 3 3 3 2 1 1 2 2 3 3 3 3 2 2 3 3 4 3 2 3 2 3 4 5 6 6 6 5 4 4 4 5 4
4 3 2 1 2 2 3 3 3 3 3 3 3 3 2 2 2 3 3 3 3 3 3 3 2 2 3 4 4 4 4 4 4 5 5 6 6 5 5 5 4 4 4
4 3 2 2 2 2 2 2 2 2 2 2 3 3 3 3 2 2 2 2 3 3 3 3 3 2 2 2 3 3 3 4 5 6 5 5 5 4 5 4 5 4 3
Wind_Direction
151 144 128 147 164 180 140 113 54 22 17 343 347 355 359 357 359 353 327 349 0 334 330 352 346 331 338 332 322 310 284 221 180 313 6 47 63 117 132 151 163 168 180
148 148 151 157 160 157 132 131 121 63 27 359 359 352 356 10 7 359 343 356 354 343 343 357 351 340 346 338 336 332 339 3 140 204 195 145 70 94 132 168 155 179 179
161 161 155 164 158 146 115 118 124 97 55 45 31 9 9 12 6 355 356 354 355 358 359 6 356 344 336 343 350 339 347 352 68 203 239 171 141 111 95 76 273 133 244
159 155 155 166 166 158 136 130 106 87 61 57 30 16 23 22 10 2 7 15 13 11 14 23 9 356 336 328 328 337 1 17 28 345 179 56 74 102 101 249 276 248 284
144 146 147 146 133 144 149 136 68 357 28 50 47 25 33 29 17 12 352 17 355 350 6 23 20 36 48 19 344 20 3 7 18 356 54 21 5 54 318 283 276 278 273
141 143 139 142 149 163 166 176 129 67 51 49 36 39 25 19 30 28 18 357 342 341 342 337 327 48 64 70 52 44 327 287 317 333 291 263 265 268 281 278 281 286 291
159 151 156 160 165 174 195 161 150 150 161 177 91 78 55 36 24 19 5 330 316 327 341 341 338 17 52 48 21 289 275 256 231 225 230 245 254 260 268 274 274 278 278
156 159 175 184 178 184 185 179 178 179 190 186 138 131 121 57 42 13 341 306 312 325 324 335 355 29 4 2 334 317 291 283 262 234 225 238 255 257 243 255 257 260 258
161 167 169 181 193 205 198 195 200 191 194 206 203 184 145 130 131 5 339 300 293 313 337 17 50 63 7 346 316 305 306 300 287 261 241 240 246 258 249 250 251 254 263
174 167 161 165 191 213 201 197 203 205 227 222 185 174 183 185 162 196 293 293 299 305 278 129 80 64 351 345 289 285 294 303 310 309 287 266 241 234 233 227 232 241 252
143 148 146 168 203 188 166 171 198 218 235 234 204 214 216 195 173 202 225 265 302 303 298 297 74 113 263 283 281 272 274 288 285 274 267 254 226 221 218 214 221 226 244
93 122 136 168 229 164 146 182 214 224 233 230 227 231 230 203 186 203 214 237 285 300 304 327 314 253 269 272 271 274 278 287 280 275 269 260 247 250 246 226 206 216 233
101 127 169 196 216 176 195 203 215 219 232 231 221 230 230 203 181 198 212 237 259 278 306 303 287 272 266 264 257 267 267 263 266 270 274 271 260 254 255 251 259 231 235
165 195 202 207 212 206 218 217 224 228 236 244 244 250 247 167 109 124 266 257 256 267 290 284 271 265 265 266 259 256 245 259 274 272 273 276 278 258 250 245 248 243 259
199 220 224 223 220 213 211 239 245 248 236 253 298 314 323 350 142 204 237 305 305 301 294 279 267 256 250 250 254 247 234 244 256 271 289 293 285 278 270 264 261 255 252
229 242 244 240 231 231 216 222 176 165 143 148 161 192 77 141 166 180 195 259 295 305 283 265 262 261 265 264 264 261 251 250 266 276 279 274 276 280 281 279 273 260 261
241 250 267 267 253 246 243 231 214 190 210 218 213 208 209 218 227 242 262 290 284 276 259 263 266 265 264 258 269 276 274 260 253 264 266 265 270 276 280 276 269 261 258
249 247 262 271 270 257 252 247 235 225 223 225 219 217 219 224 234 248 258 293 275 248 249 266 274 276 281 281 277 277 281 276 261 258 260 261 269 275 276 277 269 257 257
264 266 271 285 284 279 269 258 251 238 242 242 208 212 218 226 235 249 236 244 262 267 263 268 275 281 286 286 282 279 284 279 276 266 258 256 265 271 273 274 275 268 259
252 254 256 273 277 277 279 279 274 264 256 257 248 231 195 208 231 233 227 240 254 262 269 273 278 283 291 294 290 280 280 277 277 275 276 276 276 274 273 271 269 267 258
266 249 237 267 281 289 294 293 295 289 282 282 281 224 212 245 256 250 229 236 256 268 270 282 283 282 275 277 284 283 282 285 287 290 290 286 283 281 277 274 271 268 267
276 272 253 262 276 298 307 305 299 288 277 274 246 229 228 248 272 275 266 257 263 265 264 272 282 282 277 270 274 283 282 289 297 297 295 284 275 274 278 276 272 270 265
271 279 283 285 301 294 273 285 287 286 288 285 275 252 233 276 302 306 305 305 286 283 281 281 293 298 296 296 299 303 311 305 297 292 290 286 279 270 268 270 269 271 264
273 273 274 288 285 280 278 281 287 290 290 291 296 288 259 268 293 290 292 298 305 307 305 298 301 314 330 338 353 24 25 341 319 310 304 293 282 269 262 262 260 257 261
266 268 263 245 245 269 283 289 297 311 317 314 305 301 302 295 296 297 302 311 313 312 316 310 313 339 357 3 16 19 13 -0 338 324 306 294 286 277 271 264 258 253 250
264 267 269 278 276 271 277 291 304 313 309 301 301 309 312 312 314 317 322 327 321 317 305 295 308 351 9 7 20 32 13 343 328 315 300 284 275 272 280 278 273 260 247
Height
1512 1512 1512 1513 1513 1513 1513 1513 1513 1513 1513 1512 1512 1511 1511 1510 1510 1509 1508 1508 1508 1507 1507 1507 1506 1506 1506 1506 1506 1507 1507 1508 1507 1508 1508 1508 1508 1508 1508 1508 1509 1509 1510
1511 1512 1512 1512 1513 1513 1513 1512 1512 1512 1511 1511 1511 1510 1510 1509 1509 1508 1507 1507 1507 1506 1506 1505 1505 1505 1504 1504 1504 1505 1505 1505 1506 1506 1506 1507 1507 1506 1506 1507 1507 1507 1507
1510 1511 1511 1511 1512 1512 1512 1511 1511 1511 1511 1510 1510 1509 1509 1508 1507 1507 1507 1506 1506 1505 1504 1504 1503 1503 1502 1502 1503 1503 1503 1504 1504 1504 1504 1505 1505 1505 1505 1505 1505 1505 1506
1509 1510 1510 1510 1511 1511 1511 1511 1510 1510 1510 1509 1509 1508 1508 1507 1507 1506 1505 1505 1504 1504 1503 1503 1502 1502 1502 1501 1501 1501 1502 1502 1502 1502 1503 1503 1503 1503 1503 1503 1503 1503 1504
1508 1509 1509 1510 1510 1510 1510 1510 1509 1509 1509 1508 1508 1507 1507 1506 1506 1505 1505 1504 1503 1503 1502 1502 1501 1501 1501 1500 1500 1500 1500 1500 1500 1500 1501 1501 1501 1501 1501 1501 1501 1501 1502
1507 1508 1508 1508 1508 1508 1508 1508 1508 1508 1507 1507 1506 1506 1506 1506 1505 1504 1503 1503 1502 1502 1501 1501 1500 1500 1499 1499 1499 1499 1498 1498 1498 1498 1498 1498 1499 1499 1499 1499 1499 1499 1499
1506 1506 1506 1506 1506 1506 1507 1506 1506 1506 1506 1506 1505 1505 1505 1504 1504 1503 1502 1501 1501 1500 1500 1499 1499 1499 1498 1498 1497 1497 1497 1497 1497 1497 1496 1496 1497 1497 1497 1497 1497 1497 1496
1504 1504 1504 1505 1505 1505 1505 1504 1504 1504 1504 1504 1504 1503 1503 1503 1502 1502 1501 1500 1499 1499 1498 1498 1497 1496 1496 1496 1496 1495 1495 1495 1495 1495 1494 1494 1495 1495 1495 1495 1494 1494 1494
1502 1502 1503 1503 1503 1503 1503 1502 1503 1503 1503 1503 1503 1502 1502 1501 1501 1500 1499 1499 1498 1497 1497 1496 1496 1495 1495 1494 1494 1493 1493 1493 1493 1493 1493 1492 1492 1492 1492 1492 1491 1491 1491
1501 1501 1501 1501 1501 1501 1501 1501 1501 1501 1502 1502 1501 1501 1500 1500 1499 1498 1498 1497 1497 1496 1495 1495 1494 1493 1493 1493 1492 1491 1491 1490 1490 1490 1490 1490 1490 1490 1490 1489 1489 1489 1488
1499 1499 1499 1499 1499 1499 1499 1499 1500 1500 1500 1500 1499 1499 1499 1498 1497 1497 1496 1496 1495 1494 1494 1493 1492 1492 1491 1490 1490 1489 1489 1488 1488 1488 1487 1487 1487 1487 1487 1487 1487 1486 1486
1497 1497 1497 1497 1497 1498 1497 1497 1497 1498 1498 1498 1498 1497 1497 1496 1496 1495 1495 1494 1493 1492 1491 1491 1490 1489 1489 1488 1487 1487 1486 1486 1486 1486 1485 1485 1485 1485 1484 1484 1484 1483 1483
1496 1496 1495 1495 1495 1495 1495 1495 1495 1496 1496 1496 1496 1495 1495 1494 1493 1493 1492 1492 1491 1490 1489 1489 1488 1487 1486 1486 1485 1484 1484 1484 1483 1483 1483 1483 1482 1482 1481 1481 1481 1480 1479
1494 1494 1494 1494 1494 1494 1494 1494 1494 1494 1494 1494 1494 1493 1493 1492 1491 1490 1490 1489 1488 1487 1487 1486 1486 1485 1484 1483 1483 1482 1482 1481 1481 1481 1480 1480 1479 1479 1478 1478 1477 1476 1476
1492 1492 1492 1492 1492 1492 1492 1492 1492 1492 1492 1492 1491 1491 1490 1490 1489 1488 1487 1486 1486 1485 1484 1483 1483 1482 1482 1481 1481 1480 1479 1478 1478 1478 1477 1477 1476 1476 1475 1475 1474 1474 1473
1490 1491 1491 1491 1491 1490 1490 1490 1490 1490 1489 1489 1489 1489 1488 1487 1487 1486 1485 1484 1483 1483 1482 1481 1480 1480 1479 1479 1478 1477 1476 1475 1475 1474 1474 1474 1473 1472 1472 1471 1471 1470 1469
1489 1489 1489 1489 1489 1489 1488 1488 1487 1487 1486 1486 1486 1485 1485 1485 1484 1484 1483 1482 1481 1480 1479 1478 1478 1477 1477 1476 1475 1474 1473 1472 1471 1471 1471 1470 1470 1469 1468 1468 1467 1467 1466
1487 1487 1487 1487 1486 1486 1486 1485 1485 1483 1483 1483 1483 1482 1482 1482 1482 1481 1480 1479 1478 1477 1477 1476 1475 1474 1474 1473 1472 1471 1470 1469 1468 1467 1467 1467 1466 1466 1465 1464 1464 1463 1463
1485 1485 1485 1485 1484 1484 1483 1483 1482 1481 1480 1480 1479 1479 1478 1478 1478 1478 1477 1476 1475 1475 1474 1473 1472 1472 1471 1470 1469 1468 1467 1466 1465 1464 1463 1463 1462 1462 1461 1461 1460 1460 1459
1482 1482 1482 1482 1482 1481 1481 1480 1480 1479 1478 1477 1477 1476 1476 1475 1474 1474 1473 1472 1472 1472 1471 1470 1470 1469 1468 1466 1465 1465 1464 1462 1461 1461 1460 1459 1458 1458 1457 1456 1456 1456 1455
1480 1480 1480 1480 1479 1479 1478 1478 1477 1477 1476 1475 1474 1474 1473 1472 1471 1471 1470 1469 1469 1468 1467 1467 1466 1465 1464 1463 1462 1461 1460 1459 1458 1457 1456 1455 1454 1454 1453 1453 1452 1452 1451
1477 1477 1477 1477 1477 1477 1476 1475 1475 1474 1473 1473 1471 1471 1470 1470 1469 1468 1467 1466 1465 1465 1464 1464 1463 1462 1461 1460 1459 1457 1456 1455 1454 1452 1451 1451 1450 1449 1449 1448 1448 1448 1447
1475 1475 1474 1474 1474 1474 1474 1473 1473 1472 1471 1470 1469 1468 1468 1467 1466 1465 1464 1463 1462 1462 1461 1461 1460 1459 1458 1456 1455 1454 1452 1451 1450 1448 1447 1446 1445 1444 1444 1444 1444 1444 1444
1473 1472 1472 1471 1471 1471 1471 1471 1470 1469 1469 1468 1467 1466 1465 1464 1463 1462 1461 1461 1459 1459 1458 1457 1456 1455 1454 1453 1451 1450 1448 1447 1445 1444 1442 1441 1440 1440 1439 1439 1439 1439 1440
1471 1470 1470 1469 1469 1469 1468 1468 1467 1467 1466 1465 1464 1463 1462 1461 1460 1459 1458 1457 1457 1456 1454 1453 1452 1451 1450 1449 1447 1445 1444 1442 1440 1439 1437 1436 1436 1435 1435 1435 1435 1435 1436
1468 1468 1467 1467 1467 1466 1465 1465 1464 1464 1463 1462 1462 1461 1460 1459 1458 1457 1456 1454 1453 1452 1451 1449 1448 1447 1446 1444 1443 1441 1439 1438 1436 1435 1433 1432 1431 1431 1431 1431 1431 1432 1432